Torna al catalogo

SL-16 R/B

AttivoLEO
NORAD 20625·ROCKET BODY·🇷🇺 Russia

Lanciato May 22, 1990 da Baikonur Cosmodrome

Loading…

Prossimi Passaggi (prossime 24 ore)

TLE

AggiornatoSource: Space-Track

Epoca: Sep 14, 2026, 00:27 UTC

1 20625U 90046B   26257.01887170 -.00000191  00000-0 -73846-4 0  9993
2 20625  70.9969 262.3795 0013747   7.9178 352.2159 14.15034365875037

Traccia SL-16 R/B in tempo reale con AllMySat

Download on the App Store